Time,TemperatureF,DewpointF,PressureIn,WindDirection,WindDirectionDegrees,WindSpeedMPH,WindSpeedGustMPH,Humidity,HourlyPrecipIn,Conditions,Clouds,dailyrainin,SolarRadiationWatts/m^2,SoftwareType,DateUTC
2013-05-09 00:22:00,55.0,52.0,-100.00,NW,317,6.0,8.0,90,0.00,,,0.00,0.000000,,2013-05-09 10:22:00,
2013-05-09 00:33:00,55.0,52.0,-100.00,NW,317,6.0,8.0,90,0.00,,,0.00,0.000000,,2013-05-09 10:33:00,
2013-05-09 00:42:00,55.0,52.0,-100.00,NW,317,6.0,8.0,90,0.00,,,0.00,0.000000,,2013-05-09 10:42:00,
2013-05-09 00:52:00,55.0,52.0,-100.00,NW,317,6.0,8.0,90,0.00,,,0.00,0.000000,,2013-05-09 10:52:00,
2013-05-09 01:22:00,53.0,51.0,-100.00,NNE,29,2.0,7.0,94,0.00,,,0.00,0.000000,,2013-05-09 11:22:00,
2013-05-09 01:32:00,53.0,51.0,-100.00,NNE,29,2.0,7.0,94,0.00,,,0.00,0.000000,,2013-05-09 11:32:00,
2013-05-09 01:41:00,53.0,51.0,-100.00,NNE,29,2.0,7.0,94,0.00,,,0.00,0.000000,,2013-05-09 11:41:00,
2013-05-09 01:51:00,53.0,51.0,-100.00,NNE,29,2.0,7.0,94,0.00,,,0.00,0.000000,,2013-05-09 11:51:00,
2013-05-09 02:22:00,51.0,49.0,-100.00,East,100,4.0,7.0,93,0.00,,,0.00,0.000000,,2013-05-09 12:22:00,
2013-05-09 02:31:00,51.0,49.0,-100.00,East,100,4.0,7.0,93,0.00,,,0.00,0.000000,,2013-05-09 12:31:00,
2013-05-09 02:42:00,51.0,49.0,-100.00,East,100,4.0,7.0,93,0.00,,,0.00,0.000000,,2013-05-09 12:42:00,
2013-05-09 02:51:00,51.0,49.0,-100.00,East,100,4.0,7.0,93,0.00,,,0.00,0.000000,,2013-05-09 12:51:00,
2013-05-09 03:21:00,51.0,49.0,-100.00,SE,144,4.0,6.0,93,0.00,,,0.00,0.000000,,2013-05-09 13:21:00,
2013-05-09 03:32:00,51.0,49.0,-100.00,SE,144,4.0,6.0,93,0.00,,,0.00,0.000000,,2013-05-09 13:32:00,
2013-05-09 03:42:00,51.0,49.0,-100.00,SE,144,4.0,6.0,93,0.00,,,0.00,0.000000,,2013-05-09 13:42:00,
2013-05-09 03:52:00,51.0,49.0,-100.00,SE,144,4.0,6.0,93,0.00,,,0.00,0.000000,,2013-05-09 13:52:00,
2013-05-09 04:21:00,50.0,45.0,-100.00,East,87,5.0,8.0,83,0.00,,,0.00,0.000000,,2013-05-09 14:21:00,
2013-05-09 04:32:00,50.0,45.0,-100.00,East,87,5.0,8.0,83,0.00,,,0.00,0.000000,,2013-05-09 14:32:00,
2013-05-09 04:41:00,50.0,45.0,-100.00,East,87,5.0,8.0,83,0.00,,,0.00,0.000000,,2013-05-09 14:41:00,
2013-05-09 04:52:00,50.0,45.0,-100.00,East,87,5.0,8.0,83,0.00,,,0.00,0.000000,,2013-05-09 14:52:00,
2013-05-09 05:21:00,48.0,45.0,-100.00,ESE,123,4.0,11.0,88,0.00,,,0.00,0.000000,,2013-05-09 15:21:00,
2013-05-09 05:33:00,48.0,45.0,-100.00,ESE,123,4.0,11.0,88,0.00,,,0.00,0.000000,,2013-05-09 15:33:00,
2013-05-09 05:43:00,48.0,45.0,-100.00,ESE,123,4.0,11.0,88,0.00,,,0.00,0.000000,,2013-05-09 15:43:00,
2013-05-09 05:52:00,48.0,45.0,-100.00,ESE,123,4.0,11.0,88,0.00,,,0.00,0.000000,,2013-05-09 15:52:00,
2013-05-09 06:22:00,47.0,43.0,-100.00,SE,130,4.0,6.0,85,0.00,,,0.00,1.000000,,2013-05-09 16:22:00,
2013-05-09 06:33:00,47.0,43.0,-100.00,SE,130,4.0,6.0,85,0.00,,,0.00,1.000000,,2013-05-09 16:33:00,
2013-05-09 06:42:00,47.0,43.0,-100.00,SE,130,4.0,6.0,85,0.00,,,0.00,1.000000,,2013-05-09 16:42:00,
2013-05-09 06:52:00,47.0,43.0,-100.00,SE,130,4.0,6.0,85,0.00,,,0.00,1.000000,,2013-05-09 16:52:00,
2013-05-09 07:21:00,55.0,45.0,-100.00,ESE,106,4.0,5.0,69,0.00,,,0.00,117.000000,,2013-05-09 17:21:00,
2013-05-09 07:32:00,55.0,45.0,-100.00,ESE,106,4.0,5.0,69,0.00,,,0.00,117.000000,,2013-05-09 17:32:00,
2013-05-09 07:42:00,55.0,45.0,-100.00,ESE,106,4.0,5.0,69,0.00,,,0.00,117.000000,,2013-05-09 17:42:00,
2013-05-09 07:55:00,55.0,45.0,-100.00,ESE,106,4.0,5.0,69,0.00,,,0.00,117.000000,,2013-05-09 17:55:00,
2013-05-09 08:21:00,62.0,51.0,-100.00,NNW,341,5.0,9.0,66,0.00,,,0.00,451.000000,,2013-05-09 18:21:00,
2013-05-09 08:31:00,62.0,51.0,-100.00,NNW,341,5.0,9.0,66,0.00,,,0.00,451.000000,,2013-05-09 18:31:00,
2013-05-09 08:42:00,62.0,51.0,-100.00,NNW,341,5.0,9.0,66,0.00,,,0.00,451.000000,,2013-05-09 18:42:00,
2013-05-09 08:52:00,62.0,51.0,-100.00,NNW,341,5.0,9.0,66,0.00,,,0.00,451.000000,,2013-05-09 18:52:00,
2013-05-09 09:21:00,69.0,52.0,-100.00,WSW,238,2.0,9.0,54,0.00,,,0.00,736.000000,,2013-05-09 19:21:00,
2013-05-09 09:31:00,69.0,52.0,-100.00,WSW,238,2.0,9.0,54,0.00,,,0.00,736.000000,,2013-05-09 19:31:00,
2013-05-09 09:41:00,69.0,52.0,-100.00,WSW,238,2.0,9.0,54,0.00,,,0.00,736.000000,,2013-05-09 19:41:00,
2013-05-09 09:52:00,69.0,52.0,-100.00,WSW,238,2.0,9.0,54,0.00,,,0.00,736.000000,,2013-05-09 19:52:00,
2013-05-09 10:22:00,69.0,48.0,-100.00,WNW,303,6.0,11.0,47,0.00,,,0.00,996.000000,,2013-05-09 20:22:00,
2013-05-09 10:32:00,69.0,48.0,-100.00,WNW,303,6.0,11.0,47,0.00,,,0.00,996.000000,,2013-05-09 20:32:00,
2013-05-09 10:42:00,69.0,48.0,-100.00,WNW,303,6.0,11.0,47,0.00,,,0.00,996.000000,,2013-05-09 20:42:00,
2013-05-09 10:52:00,69.0,48.0,-100.00,WNW,303,6.0,11.0,47,0.00,,,0.00,996.000000,,2013-05-09 20:52:00,
2013-05-09 11:22:00,71.0,53.0,-100.00,WNW,290,11.0,19.0,53,0.00,,,0.00,1149.000000,,2013-05-09 21:22:00,
2013-05-09 11:32:00,71.0,53.0,-100.00,WNW,290,11.0,19.0,53,0.00,,,0.00,1149.000000,,2013-05-09 21:32:00,
2013-05-09 11:43:00,71.0,53.0,-100.00,WNW,290,11.0,19.0,53,0.00,,,0.00,1149.000000,,2013-05-09 21:43:00,
2013-05-09 11:52:00,71.0,53.0,-100.00,WNW,290,11.0,19.0,53,0.00,,,0.00,1149.000000,,2013-05-09 21:52:00,
2013-05-09 12:22:00,66.0,55.0,-100.00,WNW,294,13.0,21.0,67,0.00,,,0.00,443.000000,,2013-05-09 22:22:00,
2013-05-09 12:33:00,66.0,55.0,-100.00,WNW,294,13.0,21.0,67,0.00,,,0.00,443.000000,,2013-05-09 22:33:00,
2013-05-09 12:42:00,66.0,55.0,-100.00,WNW,294,13.0,21.0,67,0.00,,,0.00,443.000000,,2013-05-09 22:42:00,
2013-05-09 12:52:00,66.0,55.0,-100.00,WNW,294,13.0,21.0,67,0.00,,,0.00,443.000000,,2013-05-09 22:52:00,
2013-05-09 13:21:00,69.0,55.0,-100.00,WNW,302,8.0,20.0,62,0.00,,,0.00,689.000000,,2013-05-09 23:21:00,
2013-05-09 13:32:00,69.0,55.0,-100.00,WNW,302,8.0,20.0,62,0.00,,,0.00,689.000000,,2013-05-09 23:32:00,
2013-05-09 13:42:00,69.0,55.0,-100.00,WNW,302,8.0,20.0,62,0.00,,,0.00,689.000000,,2013-05-09 23:42:00,
2013-05-09 13:52:00,69.0,55.0,-100.00,WNW,302,8.0,20.0,62,0.00,,,0.00,689.000000,,2013-05-09 23:52:00,
2013-05-09 14:22:00,72.0,54.0,-100.00,NW,311,13.0,22.0,54,0.00,,,0.00,1220.000000,,2013-05-10 00:22:00,
2013-05-09 14:32:00,72.0,54.0,-100.00,NW,311,13.0,22.0,54,0.00,,,0.00,1220.000000,,2013-05-10 00:32:00,
2013-05-09 14:42:00,72.0,54.0,-100.00,NW,311,13.0,22.0,54,0.00,,,0.00,1220.000000,,2013-05-10 00:42:00,
2013-05-09 14:51:00,72.0,54.0,-100.00,NW,311,13.0,22.0,54,0.00,,,0.00,1220.000000,,2013-05-10 00:51:00,
2013-05-09 15:21:00,66.0,56.0,-100.00,NW,316,10.0,22.0,70,0.00,,,0.00,947.000000,,2013-05-10 01:21:00,
2013-05-09 15:31:00,66.0,56.0,-100.00,NW,316,10.0,22.0,70,0.00,,,0.00,947.000000,,2013-05-10 01:31:00,
2013-05-09 15:41:00,66.0,56.0,-100.00,NW,316,10.0,22.0,70,0.00,,,0.00,947.000000,,2013-05-10 01:41:00,
2013-05-09 15:52:00,66.0,56.0,-100.00,NW,316,10.0,22.0,70,0.00,,,0.00,947.000000,,2013-05-10 01:52:00,
2013-05-09 16:21:00,65.0,55.0,-100.00,WNW,285,6.0,18.0,70,0.00,,,0.00,406.000000,,2013-05-10 02:21:00,
2013-05-09 16:31:00,65.0,55.0,-100.00,WNW,285,6.0,18.0,70,0.00,,,0.00,406.000000,,2013-05-10 02:31:00,
2013-05-09 16:42:00,65.0,55.0,-100.00,WNW,285,6.0,18.0,70,0.00,,,0.00,406.000000,,2013-05-10 02:42:00,
2013-05-09 16:52:00,65.0,55.0,-100.00,WNW,285,6.0,18.0,70,0.00,,,0.00,406.000000,,2013-05-10 02:52:00,
2013-05-09 17:21:00,63.0,57.0,-100.00,East,98,9.0,18.0,81,0.00,,,0.00,98.000000,,2013-05-10 03:21:00,
2013-05-09 17:32:00,63.0,57.0,-100.00,East,98,9.0,18.0,81,0.00,,,0.00,98.000000,,2013-05-10 03:32:00,
2013-05-09 17:43:00,63.0,57.0,-100.00,East,98,9.0,18.0,81,0.00,,,0.00,98.000000,,2013-05-10 03:43:00,
2013-05-09 17:52:00,63.0,57.0,-100.00,East,98,9.0,18.0,81,0.00,,,0.00,98.000000,,2013-05-10 03:52:00,
2013-05-09 18:23:00,61.0,55.0,-100.00,ESE,103,9.0,13.0,81,0.00,,,0.00,79.000000,,2013-05-10 04:23:00,
2013-05-09 18:33:00,61.0,55.0,-100.00,ESE,103,9.0,13.0,81,0.00,,,0.00,79.000000,,2013-05-10 04:33:00,
2013-05-09 18:42:00,61.0,55.0,-100.00,ESE,103,9.0,13.0,81,0.00,,,0.00,79.000000,,2013-05-10 04:42:00,
2013-05-09 18:52:00,61.0,55.0,-100.00,ESE,103,9.0,13.0,81,0.00,,,0.00,79.000000,,2013-05-10 04:52:00,
2013-05-09 19:22:00,59.0,55.0,-100.00,East,99,10.0,16.0,86,0.00,,,0.00,18.000000,,2013-05-10 05:22:00,
2013-05-09 19:32:00,59.0,55.0,-100.00,East,99,10.0,16.0,86,0.00,,,0.00,18.000000,,2013-05-10 05:32:00,
2013-05-09 19:42:00,59.0,55.0,-100.00,East,99,10.0,16.0,86,0.00,,,0.00,18.000000,,2013-05-10 05:42:00,
2013-05-09 19:52:00,59.0,55.0,-100.00,East,99,10.0,16.0,86,0.00,,,0.00,18.000000,,2013-05-10 05:52:00,
2013-05-09 20:21:00,58.0,55.0,-100.00,ESE,110,5.0,13.0,91,0.00,,,0.00,0.000000,,2013-05-10 06:21:00,
2013-05-09 20:32:00,58.0,55.0,-100.00,ESE,110,5.0,13.0,91,0.00,,,0.00,0.000000,,2013-05-10 06:32:00,
2013-05-09 20:41:00,58.0,55.0,-100.00,ESE,110,5.0,13.0,91,0.00,,,0.00,0.000000,,2013-05-10 06:41:00,
2013-05-09 20:51:00,58.0,55.0,-100.00,ESE,110,5.0,13.0,91,0.00,,,0.00,0.000000,,2013-05-10 06:51:00,
2013-05-09 21:22:00,59.0,57.0,-100.00,ESE,106,8.0,12.0,93,0.00,,,0.00,0.000000,,2013-05-10 07:22:00,
2013-05-09 21:31:00,59.0,57.0,-100.00,ESE,106,8.0,12.0,93,0.00,,,0.00,0.000000,,2013-05-10 07:31:00,
2013-05-09 21:42:00,59.0,57.0,-100.00,ESE,106,8.0,12.0,93,0.00,,,0.00,0.000000,,2013-05-10 07:42:00,
2013-05-09 21:52:00,59.0,57.0,-100.00,ESE,106,8.0,12.0,93,0.00,,,0.00,0.000000,,2013-05-10 07:52:00,
2013-05-09 22:21:00,58.0,55.0,-100.00,East,82,6.0,10.0,89,0.00,,,0.00,0.000000,,2013-05-10 08:21:00,
2013-05-09 22:32:00,58.0,55.0,-100.00,East,82,6.0,10.0,89,0.00,,,0.00,0.000000,,2013-05-10 08:32:00,
2013-05-09 22:42:00,58.0,55.0,-100.00,East,82,6.0,10.0,89,0.00,,,0.00,0.000000,,2013-05-10 08:42:00,
2013-05-09 22:52:00,58.0,55.0,-100.00,East,82,6.0,10.0,89,0.00,,,0.00,0.000000,,2013-05-10 08:52:00,
2013-05-09 23:21:00,57.0,55.0,-100.00,East,92,8.0,13.0,92,0.00,,,0.00,0.000000,,2013-05-10 09:21:00,
2013-05-09 23:32:00,57.0,55.0,-100.00,East,92,8.0,13.0,92,0.00,,,0.00,0.000000,,2013-05-10 09:32:00,
2013-05-09 23:42:00,57.0,55.0,-100.00,East,92,8.0,13.0,92,0.00,,,0.00,0.000000,,2013-05-10 09:42:00,
2013-05-09 23:52:00,57.0,55.0,-100.00,East,92,8.0,13.0,92,0.00,,,0.00,0.000000,,2013-05-10 09:52:00,